Tiempo cada hora Dabra

Hoy, 23 Noviembre, Lunes

Tiempo Temperatura Precipitaciones Viento Presión Humedad
00:00 +18°C° 0 mm 1 mps 744 mmHg 35%
01:00 +18°C° 0 mm 1 mps 744 mmHg 35%
02:00 +16°C° 0 mm 1 mps 744 mmHg 36%
03:00 +16°C° 0 mm 1 mps 744 mmHg 37%
04:00 +15°C° 0 mm 1 mps 744 mmHg 38%
05:00 +15°C° 0 mm 1 mps 744 mmHg 39%
06:00 +16°C° 0 mm 1 mps 745 mmHg 38%
07:00 +18°C° 0 mm 1 mps 745 mmHg 37%
08:00 +17°C° 0 mm 0 mps 746 mmHg 36%
09:00 +21°C° 0 mm 1 mps 746 mmHg 32%
10:00 +23°C° 0 mm 1 mps 746 mmHg 28%
11:00 +25°C° 0 mm 1 mps 746 mmHg 24%
12:00 +26°C° 0 mm 2 mps 745 mmHg 22%
13:00 +26°C° 0 mm 2 mps 744 mmHg 21%
14:00 +27°C° 0 mm 2 mps 743 mmHg 19%
15:00 +26°C° 0 mm 2 mps 743 mmHg 22%
16:00 +24°C° 0 mm 2 mps 743 mmHg 24%
17:00 +21°C° 0 mm 2 mps 743 mmHg 28%
18:00 +21°C° 0 mm 2 mps 743 mmHg 29%
19:00 +20°C° 0 mm 2 mps 744 mmHg 30%
20:00 +19°C° 0 mm 2 mps 744 mmHg 32%
21:00 +20°C° 0 mm 1 mps 744 mmHg 33%
22:00 +19°C° 0 mm 1 mps 744 mmHg 34%
23:00 +19°C° 0 mm 1 mps 744 mmHg 35%

Mañana, 24 Noviembre, Martes

Tiempo Temperatura Precipitaciones Viento Presión Humedad
00:00 +18°C° 0 mm 1 mps 744 mmHg 36%
01:00 +18°C° 0 mm 1 mps 743 mmHg 36%
02:00 +16°C° 0 mm 1 mps 743 mmHg 37%
03:00 +16°C° 0 mm 1 mps 743 mmHg 37%
04:00 +15°C° 0 mm 1 mps 743 mmHg 38%
05:00 +15°C° 0 mm 1 mps 743 mmHg 38%
06:00 +16°C° 0 mm 1 mps 744 mmHg 37%
07:00 +16°C° 0 mm 0 mps 744 mmHg 36%
08:00 +17°C° 0 mm 0 mps 745 mmHg 34%
09:00 +21°C° 0 mm 1 mps 745 mmHg 31%
10:00 +23°C° 0 mm 1 mps 745 mmHg 28%
11:00 +25°C° 0 mm 2 mps 744 mmHg 24%
12:00 +26°C° 0 mm 2 mps 744 mmHg 23%
13:00 +27°C° 0 mm 2 mps 743 mmHg 22%
14:00 +27°C° 0 mm 1 mps 742 mmHg 21%
15:00 +26°C° 0 mm 2 mps 742 mmHg 24%
16:00 +25°C° 0 mm 2 mps 742 mmHg 27%
17:00 +23°C° 0 mm 2 mps 742 mmHg 29%
18:00 +21°C° 0 mm 2 mps 743 mmHg 30%
19:00 +21°C° 0 mm 2 mps 743 mmHg 30%
20:00 +20°C° 0 mm 2 mps 743 mmHg 31%
21:00 +19°C° 0 mm 2 mps 743 mmHg 31%
22:00 +19°C° 0 mm 2 mps 743 mmHg 31%
23:00 +18°C° 0 mm 2 mps 743 mmHg 31%

Pasado mañana, 25 Noviembre, Miércoles

Tiempo Temperatura Precipitaciones Viento Presión Humedad
00:00 +19°C° 0 mm 1 mps 743 mmHg 32%
01:00 +18°C° 0 mm 1 mps 743 mmHg 33%
02:00 +18°C° 0 mm 1 mps 743 mmHg 33%
03:00 +16°C° 0 mm 1 mps 743 mmHg 34%
04:00 +16°C° 0 mm 1 mps 743 mmHg 35%
05:00 +16°C° 0 mm 1 mps 743 mmHg 35%
06:00 +18°C° 0 mm 1 mps 744 mmHg 35%
07:00 +19°C° 0 mm 1 mps 744 mmHg 34%
08:00 +20°C° 0 mm 1 mps 745 mmHg 33%
09:00 +21°C° 0 mm 2 mps 745 mmHg 30%
10:00 +24°C° 0 mm 2 mps 744 mmHg 28%
11:00 +26°C° 0 mm 3 mps 744 mmHg 25%
12:00 +27°C° 0 mm 3 mps 743 mmHg 24%
13:00 +28°C° 0 mm 3 mps 743 mmHg 24%
14:00 +28°C° 0 mm 3 mps 742 mmHg 23%
15:00 +27°C° 0 mm 3 mps 742 mmHg 26%
16:00 +25°C° 0 mm 2 mps 742 mmHg 29%
17:00 +23°C° 0 mm 2 mps 742 mmHg 32%
18:00 +23°C° 0 mm 2 mps 742 mmHg 33%
19:00 +21°C° 0 mm 2 mps 743 mmHg 33%
20:00 +20°C° 0 mm 2 mps 744 mmHg 34%
21:00 +20°C° 0 mm 2 mps 744 mmHg 34%
22:00 +19°C° 0 mm 2 mps 744 mmHg 35%
23:00 +19°C° 0 mm 2 mps 744 mmHg 35%

26 Noviembre, Jueves

Tiempo Temperatura Precipitaciones Viento Presión Humedad
00:00 +18°C° 0 mm 2 mps 744 mmHg 36%
01:00 +18°C° 0 mm 2 mps 743 mmHg 36%
02:00 +18°C° 0 mm 2 mps 743 mmHg 37%
03:00 +18°C° 0 mm 1 mps 743 mmHg 37%
04:00 +18°C° 0 mm 1 mps 743 mmHg 38%
05:00 +16°C° 0 mm 1 mps 743 mmHg 39%
06:00 +18°C° 0 mm 1 mps 744 mmHg 38%
07:00 +18°C° 0 mm 2 mps 745 mmHg 37%
08:00 +19°C° 0 mm 2 mps 746 mmHg 36%
09:00 +21°C° 0 mm 2 mps 746 mmHg 32%
10:00 +24°C° 0 mm 3 mps 746 mmHg 29%
11:00 +26°C° 0 mm 3 mps 746 mmHg 25%
12:00 +27°C° 0 mm 3 mps 745 mmHg 24%
13:00 +27°C° 0 mm 3 mps 745 mmHg 23%
14:00 +28°C° 0 mm 3 mps 744 mmHg 22%
15:00 +27°C° 0 mm 3 mps 744 mmHg 26%
16:00 +25°C° 0 mm 2 mps 744 mmHg 29%
17:00 +24°C° 0 mm 2 mps 744 mmHg 33%
18:00 +23°C° 0 mm 2 mps 745 mmHg 34%
19:00 +22°C° 0 mm 1 mps 745 mmHg 36%
20:00 +21°C° 0 mm 1 mps 746 mmHg 37%
21:00 +21°C° 0 mm 1 mps 746 mmHg 39%
22:00 +20°C° 0 mm 2 mps 746 mmHg 40%
23:00 +19°C° 0 mm 2 mps 746 mmHg 41%

27 Noviembre, Viernes

Tiempo Temperatura Precipitaciones Viento Presión Humedad
00:00 +19°C° 0 mm 2 mps 746 mmHg 43%
01:00 +18°C° 0 mm 2 mps 746 mmHg 45%
02:00 +17°C° 0 mm 2 mps 746 mmHg 47%
03:00 +17°C° 0 mm 2 mps 746 mmHg 49%
04:00 +17°C° 0 mm 2 mps 746 mmHg 50%
05:00 +16°C° 0 mm 2 mps 746 mmHg 52%
06:00 +17°C° 0 mm 2 mps 747 mmHg 51%
07:00 +18°C° 0 mm 2 mps 747 mmHg 49%
08:00 +19°C° 0 mm 2 mps 748 mmHg 48%
09:00 +21°C° 0 mm 2 mps 748 mmHg 43%
10:00 +24°C° 0 mm 3 mps 748 mmHg 37%
11:00 +26°C° 0 mm 3 mps 748 mmHg 32%
12:00 +27°C° 0 mm 3 mps 747 mmHg 30%
13:00 +27°C° 0 mm 3 mps 746 mmHg 29%
14:00 +28°C° 0 mm 3 mps 746 mmHg 27%
15:00 +26°C° 0 mm 3 mps 745 mmHg 30%
16:00 +24°C° 0 mm 3 mps 745 mmHg 32%
17:00 +22°C° 0 mm 3 mps 745 mmHg 35%
18:00 +21°C° 0 mm 2 mps 746 mmHg 35%
19:00 +20°C° 0 mm 2 mps 746 mmHg 34%
20:00 +19°C° 0 mm 2 mps 746 mmHg 34%
21:00 +19°C° 0 mm 2 mps 746 mmHg 34%
22:00 +18°C° 0 mm 2 mps 746 mmHg 34%
23:00 +18°C° 0 mm 2 mps 746 mmHg 34%

28 Noviembre, Sábado

Tiempo Temperatura Precipitaciones Viento Presión Humedad
00:00 +17°C° 0 mm 2 mps 746 mmHg 35%
01:00 +17°C° 0 mm 2 mps 746 mmHg 36%
02:00 +16°C° 0 mm 2 mps 746 mmHg 37%
03:00 +16°C° 0 mm 2 mps 746 mmHg 38%
04:00 +16°C° 0 mm 2 mps 746 mmHg 39%
05:00 +15°C° 0 mm 2 mps 746 mmHg 39%
06:00 +16°C° 0 mm 2 mps 746 mmHg 38%
07:00 +17°C° 0 mm 2 mps 747 mmHg 38%
08:00 +18°C° 0 mm 2 mps 747 mmHg 37%
09:00 +20°C° 0 mm 2 mps 747 mmHg 33%
10:00 +23°C° 0 mm 1 mps 747 mmHg 30%
11:00 +25°C° 0 mm 1 mps 747 mmHg 27%
12:00 +26°C° 0 mm 1 mps 746 mmHg 25%
13:00 +27°C° 0 mm 2 mps 745 mmHg 23%
14:00 +28°C° 0 mm 2 mps 744 mmHg 22%
15:00 +26°C° 0 mm 2 mps 744 mmHg 25%
16:00 +24°C° 0 mm 2 mps 744 mmHg 29%
17:00 +23°C° 0 mm 2 mps 744 mmHg 32%
18:00 +22°C° 0 mm 1 mps 745 mmHg 34%
19:00 +21°C° 0 mm 1 mps 745 mmHg 35%
20:00 +20°C° 0 mm 1 mps 745 mmHg 37%
21:00 +18°C° 0 mm 0 mps 745 mmHg 38%
22:00 +17°C° 0 mm 0 mps 745 mmHg 39%
23:00 +17°C° 0 mm 0 mps 745 mmHg 40%
Mostrar más

Necesitamos Su Consentimiento

Meteoprog y nuestros Proveedores de Servicios pueden almacenar y acceder a sus datos personales como cookies, identificadores de dispositivo u otras tecnologías similares de su dispositivo y procesar dichos datos para personalizar contenido y anuncios, además de ofrecer funciones de redes sociales y analizar el tráfico.

  • Almacenar y/o acceder a información en su dispositivo

    Se puede almacenar o acceder a cookies, identificadores de dispositivo u otra información de su dispositivo para los fines anteriormente indicados.

  • Anuncios y contenido personalizados, medición de anuncios y contenido, percepciones del público, y desarrollo de productos

    Los anuncios y el contenido pueden personalizarse en base a su perfil. Se pueden añadir más datos para personalizar mejor los anuncios y contenidos. Se puede medir el rendimiento de los anuncios y contenidos. Se puede obtener la percepción sobre el público que ha visto los anuncios y contenidos. Dichos datos pueden usarse para desarrollar o mejorar la experiencia del usuario, sistemas y software.

Al hacer clic en ‘Estoy De Acuerdo’ usted permitirá el uso de las cookies, identificadores de dispositivo, balizas web u otras tecnologías similares indicadas. Su configuración puede cambiarse desde el navegador de su dispositivo.

Para ciertos fines, los intereses legítimos pueden ser considerados por encima del consentimiento. Puede leer más sobre ello en nuestra Política de Privacidad y Cookies.